Sign In / Sign Up
 
 
Ocean Inside Regatta. Leg 3. 17/12 - 23/12



Race Date (UTC) # I place II place III place Track
Race4911 2018-12-23 17:44:44 8 Zero 24 OCTOPUS JJ
Race4910 2018-12-23 17:43:34 8 Al bolina74 _---_
Race4909 2018-12-23 17:42:22 8 youppi03:50:40 TeRehutai Lucona
Race4908 2018-12-23 17:41:03 8 federico That's D-One 29 RAYO
Race4907 2018-12-23 17:38:37 8 ge614 Ceramco NZ Snail
Race4906 2018-12-23 17:37:22 8 Nik _---_ bolina74
Race4905 2018-12-23 17:36:16 4 Lago26-Jojo Thumos Lucona
Race4904 2018-12-23 17:35:40 8 That's D-One 29 federico RAYO
Race4903 2018-12-23 17:34:28 8 Al A-Windwillow edu_canido
Race4902 2018-12-23 17:33:15 5 P.M.F. bussola Wilburt
Race4901 2018-12-23 17:32:33 8 Mar Ceramco NZ S.V. Bea
Race4900 2018-12-23 17:31:35 8 Rodise 2slow4u Pura Vida
Race4899 2018-12-23 17:30:01 8 Stella dell'Est BUMBA _---_
Race4898 2018-12-23 17:28:53 8 Vistona THE EQUALIZER That's D-One 29 Jeff
Race4897 2018-12-23 17:27:28 8 Dragon Wincer Al
Race4896 2018-12-23 17:26:42 8 tevedet Lucona jager
Race4894 2018-12-23 17:23:41 8 DuConLeFrench BUMBA _---_
Race4893 2018-12-23 17:22:03 8 RAYO dew federico
Race4892 2018-12-23 17:20:43 8 CHEMS Wincer FlyingRat
Race4891 2018-12-23 17:19:28 8 ge614 New boat GOLORITZE
Race4890 2018-12-23 17:17:52 8 Norman uycas-CT9 ITA266
Race4889 2018-12-23 17:17:14 8 rm65 Thumos _---_
Race4888 2018-12-23 17:15:58 8 dew Ceramco NZ Snail
Race4887 2018-12-23 17:14:58 8 TeRehutai Wincer Dragon
Race4886 2018-12-23 17:13:30 6 FlyingRat MP36 gioslay
Race4885 2018-12-23 17:12:34 8 DIEMSailing ge614 ITA266
Race4884 2018-12-23 17:11:17 8 take5 Lucona Norman
Race4883 2018-12-23 17:09:10 8 _---_ dew Plan B
Race4882 2018-12-23 17:07:27 8 GN.kucher Tatan ora torno con l'altro
Race4881 2018-12-23 17:07:09 8 ANLCTN DIEMSailing aspi
Race4880 2018-12-23 17:06:24 8 Vistona THE EQUALIZER starboard
Race4879 2018-12-23 17:04:49 8 Nik Ceramco NZ take5
Race4878 2018-12-23 17:03:03 2 ITA266 Astreo
Race4877 2018-12-23 17:01:41 8 Dragon jager _---_
Race4876 2018-12-23 17:01:08 8 DIEMSailing Zara anti-fascist Obelix
Race4875 2018-12-23 17:00:04 8 A-GRE_9 herbbie POL 77
Race4874 2018-12-23 16:59:13 8 Victory MP36 GN.kucher
Race4873 2018-12-23 16:57:50 8 Nik alfaya
Race4872 2018-12-23 16:56:06 5 jager Dragon ITA266
Race4871 2018-12-23 16:54:17 8 ge614 PRADA45 LENA BI
Race4870 2018-12-23 16:53:34 8 POL 77 GN.kucher cookie
Race4869 2018-12-23 16:52:08 8 Victory alfaya FlyingRat
Race4868 2018-12-23 16:50:33 8 Amateur Nik RUS-626
Race4867 2018-12-23 16:49:18 8 SY MILENE aspi Prodige_ITA
Race4866 2018-12-23 16:48:38 8 PRADA45 Ceramco NZ
Race4865 2018-12-23 16:46:55 8 Lucona GN.kucher rm65
Race4864 2018-12-23 16:45:26 8 ITA 24 take5 cookie
Race4863 2018-12-23 16:44:37 8 Dragon Amateur Plan B
Race4862 2018-12-23 16:43:00 5 aspi Sud_Sicily_ ___
Race4861 2018-12-23 16:41:57 8 ge614 alfaya Ceramco NZ
Race4860 2018-12-23 16:40:00 8 ora torno con l'altro rm65 GN.kucher
Race4859 2018-12-23 16:39:09 5 ITA 24 cookie Dragon
Race4858 2018-12-23 16:38:03 8 Obelix Alcor1183
Race4857 2018-12-23 16:36:51 3 ayn happy ___ Sea horse
Race4856 2018-12-23 16:35:48 8 Ceramco NZ Valentina P.M.F.
Race4855 2018-12-23 16:35:01 3 Chinook S.V. Bea Igor
Race4854 2018-12-23 16:34:26 8 POL 77 PRADA45 Thumos
Race4853 2018-12-23 16:33:11 3 Attilio P.M.F. Piotr470
Race4852 2018-12-23 16:32:02 8 Obelix Blue eyes Lucona
Race4851 2018-12-23 16:30:45 8 Dragon marty909 Alcor1183
Race4850 2018-12-23 16:29:41 8 jlaw ayn happy
Race4849 2018-12-23 16:28:57 8 POL 77 Hihihihihi Prodige_ITA
Race4848 2018-12-23 16:26:32 6 Thumos Victory rm65
Race4847 2018-12-23 16:24:56 8 marty909 Lucona Y.C. Tempio Pausania
Race4846 2018-12-23 16:24:00 4 Vento Levou rose Findingdreams
Race4845 2018-12-23 16:23:10 8 jlaw Prodige_ITA
Race4844 2018-12-23 16:20:57 8 POL 77 Alcor1183 Withe
Race4843 2018-12-23 16:19:55 8 Norman ayn happy TRICK
Race4842 2018-12-23 16:18:25 8 Vistona THE EQUALIZER marty909 Y.C. Tempio Pausania
Race4841 2018-12-23 16:16:08 7 trieste Thumos
Race4840 2018-12-23 16:14:27 8 Withe POL 77 gioslay
Race4839 2018-12-23 16:12:53 8 Valentina MJ TRICK
Race4838 2018-12-23 16:10:47 8 Pura Vida Attilio Blue eyes
Race4837 2018-12-23 16:09:46 8 POL 77 Lago26-Jojo Wincer
Race4836 2018-12-23 16:08:45 8 revenge OMAHA
Race4835 2018-12-23 16:07:11 2 TRICK Crocchidù
Race4834 2018-12-23 16:05:31 8 rm65 Platu Worlds 2020 P.M.F.
Race4833 2018-12-23 16:04:29 8 jonatan41 NFUN Pura Vida
Race4832 2018-12-23 16:03:12 7 DIEMSailing Victory
Race4831 2018-12-23 16:02:05 8 star6546 JGCosta Alcor1183
Race4830 2018-12-23 16:00:31 8 Sea horse smiling parrot Ilyfe
Race4829 2018-12-23 15:58:40 8 OCS RS jahon Platu Worlds 2020
Race4828 2018-12-23 15:57:30 8 Ceramco NZ NAGS Withe
Race4827 2018-12-23 15:56:17 8 Victory Wincer
Race4826 2018-12-23 15:55:27 8 fuakata Pura Vida OMAHA
Race4825 2018-12-23 15:54:28 8 La GattaGnuda ora torno con l'altro marty909
Race4824 2018-12-23 15:52:35 8 Dragon Platu Worlds 2020 MobysDick
Race4823 2018-12-23 15:51:30 8 POL220 Valentina Ceramco NZ
Race4822 2018-12-23 15:50:41 8 Wincer Victory
Race4821 2018-12-23 15:48:58 8 fuakata POL 77 Thumos
Race4820 2018-12-23 15:47:51 8 Ilyfe smiling parrot NoPainNoGain
Race4819 2018-12-23 15:46:57 8 Dragon La GattaGnuda KUM
Race4818 2018-12-23 15:45:39 8 Plan B Kaksikapitany Platu Worlds 2020
Race4817 2018-12-23 15:43:52 8 Canelo DIEMSailing
Race4816 2018-12-23 15:42:20 4 FlyingRat Lago26-Jojo Thumos
Race4815 2018-12-23 15:42:04 8 Ilyfe jahon MAX
Race4814 2018-12-23 15:41:21 8 La GattaGnuda StorM Dragon
Race4813 2018-12-23 15:39:12 6 Yoxi 333 Platu Worlds 2020 ora torno con l'altro
Race4812 2018-12-23 15:38:08 8 Victory Strbrd S.V. Bea
Race4811 2018-12-23 15:37:26 8 Valentina NAGS Albarone